Simultaneous Nadir Overpasses (SNOs) Predictions

Prediction of SNOs between LANDSAT-8 and METOP-A Satellite Orbit:

Table of predicted SNOs for the next 14.0 days since TLE Epoch: 6/8/2018
Index Date (LANDSAT-8) Time (LANDSAT-8) Lat,Lon (LANDSAT-8) SZA (LANDSAT-8 ) Date (METOP-A) Time (METOP-A) Lat,Lon (METOP-A) SZA (METOP-A ) Distance(km) Time Diff (sec)
1 06/10/2018 04:24:38 -81.37, -21.88 119.05 06/10/2018 04:24:02 -81.37, -21.85 119.06 0.72 36
2 06/10/2018 05:14:04 81.38, 145.88 60.97 06/10/2018 05:14:42 81.37, 145.85 60.98 0.73 38
3 06/12/2018 23:58:56 -81.36, 44.32 119.28 06/12/2018 23:58:20 -81.36, 44.30 119.30 0.52 36
4 06/13/2018 00:48:22 81.37,-147.95 60.73 06/13/2018 00:49:00 81.37,-148.02 60.75 1.19 38
5 06/15/2018 19:33:12 -81.37, 110.89 119.41 06/15/2018 19:32:36 -81.37, 110.83 119.44 1.13 36
6 06/15/2018 20:22:38 81.37, -81.41 60.60 06/15/2018 20:23:16 81.37, -81.50 60.61 1.51 38
7 06/18/2018 15:07:29 -81.37, 177.44 119.49 06/18/2018 15:06:53 -81.37, 177.35 119.53 1.75 36
8 06/18/2018 15:56:55 81.38, -14.89 60.51 06/18/2018 15:57:33 81.37, -15.00 60.52 1.87 38
9 06/21/2018 10:41:47 -81.36,-116.41 119.58 06/21/2018 10:41:11 -81.36,-116.54 119.61 2.17 36




NCC Satellite Simultaneous Nadir Overpasses (SNOs) Prediction Service
